Regional Weather Roundup
Issued by NWS

Home | Current Version | Previous Version | Text Only | Print | Product List | Glossary On
Versions: 1 2 3 4 5 6 7 8 9 10 11 12 13 14 15 16 17 18 19 20 21 22 23 24 25 26 27 28 29 30 31 32 33 34 35 36 37 38 39 40 41 42 43 44 45 46 47 48 49 50
000
ASUS45 KBOU 021707
RWRCO

WEATHER ROUNDUP FOR COLORADO
NATIONAL WEATHER SERVICE DENVER/BOULDER CO
1100 AM MDT MON MAY 02 2016

NOTE: "FAIR" INDICATES FEW OR NO CLOUDS BELOW 12000 FEET WITH NO
SIGNIFICANT WEATHER AND/OR OBSTRUCTIONS TO VISIBILITY.

COZ001>005-013-030-031-021800-
...NORTHWEST COLORADO...

CITY           SKY/WX    TMP DP  RH WIND       PRES   REMARKS
CRAIG          FAIR      48  26  42 W8        30.28S
HAYDEN         FAIR      45  28  53 N3        30.27S
MEEKER         FAIR      50  30  46 CALM      30.27S
MOUNT WERNER   NOT AVBL
STEAMBOAT SPGS FAIR      46  28  50 SW3       30.26F
WALDEN         FAIR      39  21  48 CALM      30.28S
$$

COZ006>008-011-021800-
...WEST CENTRAL VALLEYS...

CITY           SKY/WX    TMP DP  RH WIND       PRES   REMARKS
GRAND JUNCTION FAIR      57  38  48 E5        30.23F
MONTROSE       FAIR      51  36  56 E5        30.28F
EAGLE          MOSUNNY   50  28  43 CALM      30.27F
RIFLE          FAIR      53  37  54 VRB3      30.25F
DELTA          NOT AVBL
NUCLA          NOT AVBL
$$

COZ017>023-064>068-021800-
...SOUTHWEST COLORADO...

CITY           SKY/WX    TMP DP  RH WIND       PRES   REMARKS
DURANGO        PTSUNNY   46  33  60 CALM      30.29S
CORTEZ         PTSUNNY   49  34  56 S8        30.27S
PAGOSA SPRINGS PTSUNNY   40  33  74 CALM      30.31R
TELLURIDE      CLOUDY    41  30  64 W7        30.32R
WOLF CREEK PAS CLOUDY    25  25 100 NE6       30.38R WCI  18
$$

COZ009-010-012-014-032>034-037-058>063-021800-
...CENTRAL COLORADO...

CITY           SKY/WX    TMP DP  RH WIND       PRES   REMARKS
ASPEN          PTSUNNY   45  25  45 W7        30.25F
BUENA VISTA    FAIR      42  29  60 SE8       30.26F
COPPER MTN     NOT AVBL
BERTHOUD PASS  FAIR      19  10  68 N15G29    30.31S WCI   5
COTTONWOOD PAS FAIR      39  28  65 CALM      30.29S
GUNNISON       FAIR      43  30  61 SE5       30.31S
KREMMLING      FAIR      43  21  42 CALM      30.28F
LEADVILLE      FAIR      36  18  48 N7        30.28R
MONARCH PASS   PTSUNNY   25  23  93 MISG      30.43S
SALIDA         FAIR      45  32  59 N3        30.33F
SUNLIGHT       CLOUDY    32  30  93 NW3         N/A
WILKERSON PASS FAIR      32  23  69 N5        30.33R WCI  27
$$

COZ069>075-021800-
...SAN LUIS VALLEY/SANGRE DE CRISTO MOUNTAINS...

CITY           SKY/WX    TMP DP  RH WIND       PRES   REMARKS
ALAMOSA        PTSUNNY   41  29  62 VRB3      30.28S
LA VETA PASS   CLOUDY    34  30  86 S8G21     30.29R WCI  27
SAGUACHE       CLOUDY    43  30  61 S7        30.29S
$$

COZ035-036-038>040-021800-
...NORTHERN COLORADO FRONT RANGE...

CITY           SKY/WX    TMP DP  RH WIND       PRES   REMARKS
DENVER INTL AP FAIR      45  26  47 CALM      30.24S
DMNS CITY PARK   N/A     48  27  43 N7        30.24S
AURORA         FAIR      42  29  60 S6        30.25F
FRONT RANGE AP MOSUNNY   43  30  61 CALM      30.25F
ERIE MUNI ARPT FAIR      48  26  43 CALM      30.23S
BOULDER MUN AP FAIR      48  21  34 NE3       30.22S
CENTENNIAL     FAIR      42  29  59 S7        30.23F
BROOMFIELD     SUNNY     45  25  45 CALM      30.24F
FORT COLLINS   FAIR      46  23  39 CALM      30.24F
LONGMONT       FAIR      52  28  38 CALM      30.24F
$$

COZ041-046-047-076>085-087-088-021800-
...PIKES PEAK/PALMER DIVIDE AND SOUTHERN FOOTHILLS...

CITY           SKY/WX    TMP DP  RH WIND       PRES   REMARKS
COLO. SPRINGS  FAIR      47  24  40 E3        30.26F
A. F. ACADEMY  FAIR      41  25  52 VRB1      30.24F
SCHRIEVER AFB  NOT AVBL
ELLICOTT       FAIR       1  32 100 NW6       30.25  WCI -10
FALCON         FAIR      42  26  53 SW5       30.26F
FORT CARSON    FAIR      46  26  47 VRB7      30.24F
LIMON          FAIR      39  30  70 W10       30.25F
MONUMENT HILL  FAIR      36  27  69 SW5       30.25F
TRINIDAD       FAIR      45  33  63 W6        30.26S
$$

COZ042>045-048>051-090-091-021800-
...NORTHEAST COLORADO...

CITY           SKY/WX    TMP DP  RH WIND       PRES   REMARKS
GREELEY ARPT   FAIR      46  27  46 NW7       30.24F
AKRON          FAIR      48  29  47 W10       30.22F
BURLINGTON     FAIR      53  28  38 N12       30.22F
WRAY           NOT AVBL
STERLING       FAIR      54  32  43 CALM      30.20F
HOLYOKE        NOT AVBL
FORT MORGAN    FAIR      51  26  37 W10       30.23F
$$

COZ086-089-092>099-021800-
...SOUTHEAST COLORADO...

CITY           SKY/WX    TMP DP  RH WIND       PRES   REMARKS
PUEBLO         FAIR      50  31  48 SW6       30.26F
LA JUNTA       FAIR      51  31  46 NW8       30.26F
LAMAR          FAIR      53  30  41 NW8       30.23F
SPRINGFIELD      N/A     50  33  52 N15G21    30.24F
$$



USA.gov is the U.S. government's official web portal to all federal, state and local government web resources and services.